Temperature
18 18 18 18 18 18 18 18 18 18 18 18 18 18 18 18 18 18 18 18 18 18 18 18 18 18 18 18 18 18 18 18 18 18 18 18 17 17 17 17 17 17 17
18 18 18 18 18 18 18 18 18 18 18 18 18 18 18 18 18 18 18 18 18 18 18 18 18 18 18 18 18 18 18 18 18 17 17 17 17 17 17 17 17 17 17
18 18 18 18 18 18 18 18 18 18 18 18 18 18 18 18 18 18 18 18 18 18 18 18 18 18 18 18 18 18 18 17 17 17 17 17 17 17 17 17 17 17 17
18 18 18 18 18 18 18 18 18 18 18 18 18 18 18 18 18 18 18 18 18 18 18 18 18 18 18 18 18 17 17 17 17 17 17 17 17 17 17 17 17 17 17
18 18 18 18 18 18 18 18 18 18 18 18 18 18 18 18 18 18 18 18 18 18 18 18 18 18 18 18 18 17 17 17 17 18 17 17 17 17 17 17 17 17 17
19 19 18 19 19 19 18 18 18 18 18 18 18 18 18 18 18 18 18 18 18 18 18 18 18 18 18 18 18 17 17 18 17 17 17 17 17 17 17 17 17 17 17
19 19 19 19 19 19 18 18 18 18 18 18 18 18 18 18 18 18 18 18 18 18 18 18 18 18 17 17 17 17 17 17 17 17 17 17 17 17 17 17 17 17 17
19 19 19 19 19 19 18 18 18 18 18 18 18 18 18 18 18 18 18 18 18 18 18 17 17 17 17 17 17 17 17 18 17 17 17 17 17 17 17 17 17 17 17
19 19 19 19 19 19 19 18 18 18 18 18 18 18 18 18 18 18 18 18 18 18 18 17 17 17 17 17 17 17 17 17 18 17 17 17 17 17 17 17 17 17 17
19 19 19 19 19 19 19 18 18 18 18 18 18 18 18 18 18 18 18 18 18 18 18 18 17 17 17 17 17 17 17 17 18 18 17 17 17 17 17 17 17 17 17
19 19 19 19 19 19 19 18 18 18 18 18 18 18 18 18 18 18 18 18 18 18 17 17 17 17 17 17 17 17 17 17 17 18 18 17 17 17 17 17 17 17 17
19 19 19 19 19 19 19 19 18 18 18 18 18 18 18 18 18 18 18 18 18 18 18 18 17 17 17 17 18 18 18 17 17 18 18 18 17 17 17 17 17 17 17
19 19 19 19 19 19 19 19 18 18 18 18 18 18 18 18 18 18 18 18 18 18 18 18 18 17 18 18 18 18 18 18 18 18 18 18 18 18 17 17 17 17 17
19 19 19 19 19 19 19 19 18 18 18 18 18 18 18 18 18 18 18 18 18 18 18 18 18 18 18 18 18 18 18 18 18 18 18 18 17 17 17 17 17 17 17
20 19 19 19 19 19 19 19 18 18 18 18 18 18 18 18 18 18 18 18 18 18 18 18 18 18 18 18 18 18 18 18 18 18 18 18 17 17 17 17 17 17 17
20 19 19 19 19 19 19 19 18 18 18 18 18 18 18 18 18 18 18 18 18 18 18 18 18 18 18 18 18 18 18 18 18 18 18 18 17 17 17 17 17 17 17
20 20 19 19 19 19 19 19 18 18 18 18 18 18 18 18 18 18 18 18 18 18 18 18 18 18 18 18 18 18 18 18 18 18 18 18 17 17 17 17 17 17 17
20 20 20 19 19 19 19 19 18 18 18 18 18 18 18 18 18 18 18 18 18 18 18 18 18 18 18 18 18 18 18 18 18 18 18 18 18 17 17 17 17 17 17
21 20 20 20 19 19 19 19 18 18 18 18 18 18 18 18 18 18 18 18 18 18 18 18 18 18 18 18 18 18 18 18 18 18 18 17 17 17 17 17 17 17 17
21 20 20 20 20 19 19 19 18 18 18 18 18 18 18 18 18 18 18 18 18 18 18 18 18 18 18 18 18 17 17 17 17 17 17 17 17 17 17 17 17 17 17
21 21 20 20 20 19 19 19 19 19 18 18 18 18 18 18 18 18 18 18 18 18 18 18 18 17 17 17 17 17 17 17 17 17 17 17 17 17 17 17 17 17 17
21 21 21 20 20 19 19 19 19 19 18 18 18 18 18 18 18 18 18 18 18 18 17 18 17 17 17 17 17 17 17 17 17 17 17 17 17 17 17 17 17 17 17
21 21 21 20 20 19 19 19 19 18 18 18 18 18 18 18 18 18 18 18 17 17 17 17 17 17 17 17 17 17 17 17 17 17 17 17 17 17 16 16 16 16 16
22 22 21 21 20 20 19 19 19 19 19 19 18 18 18 18 18 18 18 17 17 17 17 17 17 17 17 17 17 17 17 17 16 16 16 16 16 16 16 16 16 16 16
22 22 21 21 20 20 19 19 19 19 19 18 18 18 18 18 18 18 18 17 17 17 17 17 17 17 17 17 17 17 17 16 16 16 16 15 15 15 15 15 16 16 16
22 22 22 21 21 20 20 19 19 19 19 19 18 18 18 18 18 18 18 17 17 17 17 17 17 17 17 17 17 17 17 16 16 16 16 15 15 15 15 15 15 15 15
Wind_Speed
1 1 7 10 12 13 14 14 15 16 16 17 17 17 17 16 16 16 16 16 16 17 17 17 18 18 18 18 18 18 18 18 17 17 17 17 17 17 17 17 16 15 17
2 3 8 10 11 12 13 14 14 15 15 16 16 16 16 16 15 15 16 16 16 16 17 16 17 18 18 18 18 17 17 17 17 16 16 16 16 16 16 16 16 14 17
3 4 7 10 11 12 13 14 14 15 15 16 15 15 16 15 15 16 15 15 15 16 16 16 16 17 17 17 17 17 17 16 16 16 15 13 14 15 16 16 16 17 16
5 5 7 10 10 11 12 13 13 14 14 14 14 14 15 15 14 14 14 14 15 15 15 16 16 16 16 16 16 16 15 16 15 14 11 11 12 14 15 15 16 16 15
5 5 7 10 10 10 11 12 12 13 13 13 13 13 13 13 13 13 14 14 14 15 15 15 16 16 16 15 15 14 14 14 14 12 10 10 10 14 15 15 15 14 14
4 5 7 9 9 9 10 11 11 11 11 12 12 12 12 12 12 13 13 13 14 14 14 14 15 15 14 14 13 13 13 12 11 10 9 9 9 13 13 14 14 13 13
4 4 6 8 9 9 9 9 10 10 10 10 10 11 11 11 11 12 11 12 13 13 13 13 13 13 12 12 11 11 11 11 9 9 8 8 9 11 13 13 13 13 12
4 4 4 7 8 8 8 8 8 9 9 9 9 9 10 10 10 10 10 10 11 11 11 11 11 11 10 10 10 10 10 9 8 8 8 8 9 11 11 12 11 11 12
4 3 3 4 5 6 6 6 7 7 7 7 8 8 9 9 9 9 9 9 9 9 9 9 9 9 8 8 8 8 8 8 7 7 7 7 9 10 11 11 11 11 11
3 3 2 3 3 3 3 4 5 5 5 6 6 7 7 7 7 7 7 7 7 8 8 8 7 7 6 6 6 6 7 7 7 6 5 7 9 10 10 10 10 11 11
2 1 1 2 2 2 2 2 3 3 3 3 4 5 5 5 5 5 5 5 5 5 6 5 5 5 5 4 4 4 5 5 5 5 5 6 8 9 10 10 10 10 10
4 3 1 1 1 1 1 2 2 2 2 2 2 3 3 3 3 3 2 2 2 3 3 3 3 3 2 2 2 3 3 4 4 4 5 7 9 10 10 11 11 11 11
5 4 3 2 2 1 0 0 0 1 1 1 1 1 2 2 2 2 2 2 2 1 1 1 1 1 1 1 1 2 3 3 3 4 5 8 9 10 11 11 11 11 11
4 5 4 3 2 2 2 1 1 0 0 0 1 1 0 1 1 1 1 2 1 1 0 0 0 0 1 1 2 2 3 4 4 5 6 8 10 11 12 12 12 12 12
5 5 5 4 4 3 2 1 1 1 1 2 1 2 2 1 1 1 1 2 2 1 1 1 1 1 1 2 2 2 3 4 5 5 6 8 10 11 12 12 12 12 13
7 6 5 4 4 4 3 2 1 1 2 1 2 3 3 3 2 1 1 1 2 2 2 2 2 1 1 1 2 2 3 4 4 5 5 7 9 10 12 12 13 13 14
7 6 6 6 4 4 4 3 2 2 2 1 2 2 3 3 3 2 1 1 2 2 2 1 1 1 1 1 1 2 2 3 4 5 5 5 6 9 10 12 13 14 14
7 7 6 6 5 4 3 2 1 1 1 1 1 1 2 2 2 2 1 1 2 1 1 1 1 1 1 1 1 2 1 2 3 4 4 5 5 5 6 9 10 11 12
8 7 6 5 5 4 3 2 1 1 0 1 1 0 0 0 1 2 1 2 2 1 1 2 1 2 1 1 1 1 1 2 2 3 3 4 4 4 4 6 7 8 10
7 6 6 5 4 4 2 1 1 1 1 1 1 1 0 1 0 1 1 1 1 1 1 1 1 1 1 1 1 1 1 1 1 2 2 2 2 3 3 4 5 6 7
6 6 6 6 4 4 2 1 1 0 0 1 1 1 1 1 1 1 0 1 0 1 1 1 1 1 1 1 1 1 1 1 0 1 1 1 1 2 2 3 3 4 4
7 7 6 6 5 4 3 2 2 1 0 0 1 2 2 2 1 0 1 0 0 0 1 1 1 1 1 2 2 1 1 2 2 1 0 1 1 1 1 1 2 2 3
8 9 8 6 6 5 4 3 2 2 2 2 2 2 2 2 2 1 0 0 1 1 1 2 2 2 2 1 2 2 2 2 1 2 2 1 1 1 0 1 0 1 2
10 8 7 6 5 5 5 4 4 3 2 1 0 1 2 3 3 2 1 0 0 1 1 2 1 2 2 2 1 1 2 2 2 0 2 2 2 2 1 1 2 2 1
9 8 7 6 5 5 5 6 5 3 2 1 1 1 1 2 3 3 2 1 1 1 1 1 1 1 2 2 2 1 1 1 2 2 1 1 2 2 2 2 2 3 3
7 7 7 7 6 5 6 6 6 5 4 2 1 0 1 2 2 3 2 2 1 1 1 1 1 1 1 2 2 2 2 2 2 2 2 1 1 2 3 3 3 4 4
Wind_Direction
6 55 88 86 84 82 80 82 86 89 89 91 95 96 97 99 102 104 104 104 104 103 103 103 103 105 105 105 105 105 106 106 107 109 109 109 111 115 118 118 117 117 118
137 112 102 95 90 86 83 81 86 89 91 92 94 96 97 98 99 103 102 104 104 104 102 103 104 105 105 105 105 106 107 107 108 109 109 110 111 114 117 118 118 120 120
106 106 108 102 96 90 86 84 83 87 90 91 91 95 97 97 98 101 100 103 105 104 104 105 105 106 106 106 106 107 108 107 106 106 106 108 113 116 118 120 121 121 122
113 109 111 106 100 94 90 89 87 88 89 89 90 94 97 95 96 99 101 101 103 104 105 107 107 107 107 108 107 108 108 107 106 104 100 108 115 119 121 123 124 125 126
102 108 118 111 106 100 95 92 91 90 91 92 93 95 98 97 97 100 102 103 104 106 106 106 107 108 107 108 109 111 111 109 105 101 101 104 113 123 125 126 128 128 127
96 109 122 118 113 106 101 97 96 94 94 94 94 94 97 96 96 102 102 102 105 105 106 107 108 108 108 109 109 112 112 112 108 104 107 110 118 128 129 130 130 131 130
108 111 123 120 117 113 109 105 104 101 99 97 96 95 95 95 95 100 102 101 103 104 107 108 108 110 112 114 114 115 114 115 112 113 118 122 128 134 135 134 134 136 135
111 104 117 122 118 115 113 110 107 106 103 102 100 98 96 96 97 100 103 105 106 106 109 112 112 113 113 116 118 117 118 117 118 123 129 135 140 140 140 140 140 140 139
96 92 82 99 114 118 116 114 109 105 100 99 100 100 99 99 99 101 103 106 109 111 112 114 113 114 113 117 122 123 122 117 121 134 138 142 148 151 149 148 150 148 146
84 78 74 74 79 90 106 115 113 107 101 96 99 102 99 97 95 97 99 105 111 116 118 117 116 115 113 116 126 130 128 122 127 139 141 152 159 161 161 160 160 160 158
146 86 85 94 96 99 117 131 120 113 105 95 91 98 89 76 73 79 94 105 114 124 130 127 125 123 111 108 122 127 125 130 137 147 158 166 171 173 173 173 172 170 168
195 211 215 192 171 157 154 96 83 79 72 65 57 61 69 66 62 66 65 89 118 133 146 145 147 136 116 103 110 127 134 147 157 167 184 187 186 186 187 186 184 183 181
194 198 202 215 213 205 252 50 54 74 79 60 46 57 56 41 25 19 4 350 353 13 112 113 95 126 149 162 168 173 179 183 193 196 201 202 202 200 198 197 195 194 193
184 204 205 202 204 216 215 255 250 246 199 250 247 194 132 7 345 333 317 301 298 309 123 160 182 247 237 229 211 200 199 205 209 211 215 215 215 212 208 207 205 202 201
191 210 210 200 197 202 202 238 213 215 216 228 238 229 206 210 250 277 275 273 270 262 238 216 228 255 255 261 239 211 214 216 215 217 223 226 224 220 216 214 213 211 211
194 201 199 198 196 189 188 199 217 216 231 240 240 242 221 209 216 230 257 263 265 250 239 227 230 246 262 257 262 240 228 223 219 218 224 228 227 225 223 220 219 217 218
191 191 192 196 187 183 186 189 190 207 206 245 262 248 227 213 209 203 227 264 264 239 217 212 235 248 254 243 254 242 227 224 222 223 225 229 232 230 230 229 228 226 224
181 186 194 192 179 185 180 171 173 170 177 249 269 267 249 230 212 188 207 263 266 220 189 187 203 235 255 249 265 271 248 229 223 223 223 226 228 229 232 233 231 231 231
183 182 184 185 175 178 169 158 140 107 85 298 264 229 227 95 193 180 208 260 249 203 199 217 195 190 218 241 257 263 253 241 236 227 219 219 219 225 231 237 234 235 234
178 177 179 179 173 154 134 110 71 57 34 18 1 309 23 62 196 169 211 270 225 184 217 208 202 197 211 227 295 329 318 261 238 229 223 208 205 212 225 234 241 248 245
174 178 182 176 173 149 138 142 144 164 20 9 351 356 18 34 45 97 30 317 228 206 228 202 178 179 196 153 109 8 4 21 278 241 225 200 210 213 215 228 244 252 256
185 188 188 182 177 174 165 157 151 135 134 295 355 13 16 13 350 123 158 278 242 239 258 206 180 181 206 173 160 151 339 358 12 341 200 191 220 194 197 235 245 250 255
192 195 194 189 184 181 164 124 98 76 51 31 8 358 353 351 345 342 135 236 247 223 250 246 204 198 218 220 191 172 173 229 323 16 34 68 88 136 187 57 25 281 264
202 195 188 184 182 176 164 156 158 157 171 205 211 311 346 6 359 355 13 155 244 240 266 268 224 216 199 216 222 221 205 175 186 325 23 42 54 48 23 28 17 8 2
192 185 182 174 177 175 169 166 160 160 166 148 112 3 353 358 0 0 13 24 354 312 296 295 278 221 207 202 203 202 192 186 193 198 229 33 46 39 39 32 36 39 44
181 175 171 169 177 173 167 163 165 168 162 145 129 32 352 351 356 2 8 1 343 331 318 302 293 266 224 211 209 206 191 185 189 186 199 185 77 37 42 40 40 44 48
Height
1519 1518 1518 1518 1517 1517 1517 1516 1516 1515 1515 1515 1515 1515 1516 1516 1517 1518 1519 1520 1521 1523 1524 1525 1526 1528 1530 1531 1533 1534 1535 1536 1537 1538 1539 1539 1540 1541 1544 1546 1548 1550 1552
1520 1520 1521 1520 1520 1520 1520 1519 1518 1518 1518 1518 1519 1519 1519 1520 1520 1521 1522 1523 1524 1526 1527 1528 1530 1531 1532 1534 1535 1536 1537 1538 1540 1541 1541 1542 1543 1545 1547 1549 1550 1552 1554
1522 1523 1523 1523 1523 1523 1523 1522 1521 1521 1521 1521 1522 1522 1523 1523 1523 1524 1525 1526 1527 1529 1530 1531 1532 1534 1535 1537 1538 1539 1540 1541 1542 1543 1544 1545 1547 1548 1549 1551 1553 1554 1556
1524 1525 1525 1526 1526 1526 1526 1526 1525 1525 1525 1525 1525 1526 1526 1527 1527 1528 1528 1529 1530 1531 1533 1534 1536 1537 1538 1540 1541 1542 1543 1544 1545 1546 1547 1548 1549 1551 1552 1554 1555 1557 1558
1526 1527 1528 1528 1529 1529 1529 1529 1529 1528 1528 1528 1529 1529 1529 1530 1531 1531 1532 1532 1533 1534 1536 1537 1538 1540 1541 1542 1544 1545 1546 1547 1548 1549 1550 1551 1552 1553 1555 1556 1557 1559 1560
1528 1529 1530 1531 1531 1531 1532 1532 1532 1532 1532 1532 1532 1532 1532 1533 1533 1533 1534 1535 1536 1538 1539 1540 1541 1542 1544 1545 1546 1548 1549 1550 1551 1552 1553 1553 1554 1556 1557 1558 1559 1561 1562
1531 1531 1532 1533 1533 1534 1534 1534 1535 1535 1535 1535 1535 1535 1535 1536 1536 1537 1537 1539 1540 1541 1542 1543 1544 1545 1547 1548 1549 1550 1551 1552 1553 1554 1555 1556 1557 1558 1559 1560 1561 1563 1564
1533 1534 1535 1535 1536 1536 1537 1537 1537 1538 1538 1538 1538 1538 1538 1539 1539 1540 1541 1541 1542 1543 1544 1546 1547 1548 1549 1550 1551 1552 1553 1554 1555 1556 1557 1558 1559 1560 1561 1562 1563 1564 1566
1535 1536 1537 1537 1538 1538 1539 1539 1540 1540 1541 1541 1541 1541 1541 1541 1542 1543 1543 1544 1545 1546 1547 1548 1549 1550 1552 1553 1554 1554 1555 1556 1557 1558 1559 1559 1560 1561 1562 1563 1564 1566 1567
1537 1538 1539 1539 1540 1541 1541 1542 1542 1543 1543 1543 1543 1544 1544 1544 1545 1545 1546 1547 1548 1548 1549 1550 1551 1553 1553 1554 1555 1556 1557 1558 1559 1559 1560 1561 1562 1562 1563 1564 1565 1566 1568
1539 1540 1541 1541 1542 1543 1543 1544 1544 1545 1545 1545 1546 1546 1546 1547 1547 1548 1548 1549 1550 1550 1551 1552 1553 1554 1555 1556 1557 1558 1558 1559 1560 1561 1561 1562 1563 1563 1564 1565 1566 1567 1568
1540 1541 1542 1543 1544 1544 1545 1546 1546 1547 1547 1548 1548 1548 1549 1549 1549 1550 1550 1551 1552 1552 1553 1554 1555 1556 1557 1557 1558 1559 1559 1560 1561 1561 1562 1563 1563 1564 1565 1566 1566 1567 1568
1541 1543 1544 1545 1546 1546 1547 1548 1548 1549 1549 1549 1550 1550 1551 1551 1551 1552 1552 1553 1553 1554 1555 1555 1556 1557 1558 1558 1559 1559 1560 1561 1561 1562 1562 1563 1564 1564 1565 1566 1567 1567 1568
1543 1544 1545 1546 1547 1548 1549 1549 1550 1550 1551 1551 1551 1551 1552 1552 1553 1553 1554 1554 1555 1555 1556 1556 1557 1558 1558 1559 1559 1560 1561 1561 1561 1562 1563 1563 1564 1564 1565 1566 1566 1567 1568
1544 1545 1546 1547 1548 1549 1550 1550 1551 1551 1552 1552 1552 1552 1553 1553 1554 1554 1554 1555 1555 1556 1556 1557 1557 1558 1559 1559 1559 1560 1561 1561 1561 1562 1562 1563 1563 1564 1564 1565 1566 1566 1567
1544 1546 1547 1548 1549 1550 1551 1551 1552 1552 1552 1553 1553 1553 1554 1554 1554 1555 1555 1555 1556 1556 1556 1557 1557 1558 1559 1559 1559 1560 1560 1560 1561 1561 1562 1562 1563 1563 1563 1564 1565 1565 1566
1545 1546 1547 1549 1549 1550 1551 1552 1552 1553 1553 1553 1553 1554 1554 1554 1555 1555 1555 1555 1556 1556 1556 1557 1557 1557 1558 1559 1559 1559 1559 1560 1560 1560 1561 1561 1561 1562 1562 1563 1563 1564 1565
1545 1546 1548 1549 1550 1551 1551 1552 1553 1553 1553 1553 1553 1553 1554 1554 1554 1554 1554 1555 1555 1555 1556 1556 1556 1556 1557 1557 1557 1558 1558 1558 1559 1559 1559 1560 1560 1560 1561 1561 1561 1562 1562
1545 1546 1547 1549 1550 1551 1551 1552 1553 1553 1553 1553 1553 1553 1553 1553 1553 1553 1553 1553 1554 1554 1554 1555 1555 1555 1556 1556 1556 1556 1556 1556 1556 1557 1557 1557 1558 1558 1559 1559 1559 1559 1560
1545 1546 1547 1548 1549 1550 1551 1552 1552 1553 1553 1553 1553 1553 1553 1553 1553 1553 1553 1552 1553 1553 1553 1553 1554 1554 1554 1554 1554 1554 1553 1553 1554 1554 1555 1555 1555 1556 1556 1556 1556 1557 1557
1543 1545 1546 1547 1549 1550 1550 1551 1552 1552 1552 1552 1552 1552 1552 1552 1552 1552 1552 1552 1552 1552 1552 1552 1552 1552 1552 1552 1552 1552 1551 1551 1551 1552 1552 1553 1553 1553 1554 1554 1554 1554 1554
1542 1544 1545 1546 1548 1549 1550 1551 1552 1552 1552 1552 1552 1552 1552 1552 1552 1552 1551 1551 1551 1551 1550 1550 1550 1550 1550 1550 1550 1550 1550 1551 1550 1550 1550 1551 1551 1551 1551 1551 1551 1552 1552
1540 1542 1544 1546 1547 1549 1550 1550 1551 1551 1551 1552 1552 1552 1552 1551 1551 1551 1551 1550 1550 1550 1549 1549 1549 1548 1548 1548 1549 1549 1549 1548 1549 1549 1549 1549 1549 1549 1549 1549 1549 1549 1550
1538 1541 1543 1545 1546 1548 1549 1550 1550 1551 1551 1552 1552 1551 1551 1551 1551 1550 1550 1550 1549 1549 1548 1548 1547 1547 1546 1546 1546 1547 1547 1547 1548 1547 1548 1548 1548 1547 1547 1547 1547 1547 1547
1537 1539 1541 1543 1545 1547 1548 1549 1550 1550 1551 1551 1551 1551 1551 1551 1550 1550 1549 1549 1548 1548 1547 1546 1546 1545 1544 1544 1544 1544 1544 1545 1545 1545 1546 1546 1546 1546 1545 1545 1545 1545 1545
1535 1537 1539 1542 1544 1545 1547 1548 1549 1550 1550 1550 1551 1551 1551 1550 1550 1549 1549 1548 1547 1546 1546 1545 1544 1543 1543 1542 1542 1542 1542 1542 1542 1543 1543 1544 1544 1545 1544 1544 1544 1543 1544